STARLINK-11459, 62464

Orbit data source: Space-Track

STARLINK-11459, 62464 is a payload satellite owned by SpaceX/Seattle (US) in LEO that was launched on Tue, 31 Dec 2024 UTC via an FALCON 9 launch vehicle from the Air Force Eastern Test Range (AFETR). Payloads include a variety of satellites, spacecraft, and rockets equipped with specific instruments for various scientific and technological missions. These include communications satellites like Starlink; space stations such as the ISS; scientific satellites like the Hubble; Earth observation satellites from companies like Planet Labs, Umbra, and HawkEye 360; GPS; miniature CubeSats for education and research; and military/defense satellites.

Loading next visibility...
STARLINK-11459 details
Identifier
62464, 2024-254C
Orbit
LEO
Last TLE update18 hours ago
Origin
Flag of USSpaceX/Seattle (US)
ManufacturerSpaceX/Seattle
MissionOperational spacecraft
Bus & MotorSTARLINK V2M, Unknown motor
Mass730 kg wet, ~700 kg dry
Launch date (UTC)
2024-12-31 (4 weeks ago)
Launch vehicle
FALCON 9
Launch site
Air Force Eastern Test Range (AFETR)
Object type
Payload
Rocket body
Debris
Shape & HBRUnknown
Radar Cross SectionLarge (>1 m²)

Expand to show TLE details & history

TLE from 18 hours ago
0 STARLINK-11459
1 62464U 24254C   25025.09353241  .00004889  00000-0  30933-4 0  9991
2 62464  42.9979 168.1980 0001775 263.0916  96.9752 15.77862261  5103
Epoch: 2025-01-25T02:14Z
Definitive object data (Epoch: 2025-01-25T02:14:41.2Z)
Latitude-0.00003°
Longitude9.87901°
Altitude336.414 km
Speed7.709 km/s
True Right ascension11h 12m 47s
True Declination0° 00' 00"
Sunlit
Object was in full shadow at TLE epoch
Visualization TLE readout
Latitude-30.29634°
Longitude-33.23988°
Altitude343.733 km
Speed7.704 km/s
Apparent Right ascension08h 55m 37s
Apparent Declination-35° 11' 09"
Sunlit
Object is in full shadow
Visualization observer readout
Local Sidereal Time21:37:33
Azimuth63.634° ENE
Elevation-80.446°
Doppler factor1
Orbital elements
Apogee altitude339.679 km
Perigee altitude337.294 km
Semi-major axis6,716.623 km
Eccentricity0.0001775
Inclination42.9979°
RAAN168.198°
Arg. of periapsis263.0916°
True anomaly96.99539°
Mean anomaly96.9752°
Eccentric anomaly96.98529°
Mean motion3.94291 °/min
BSTAR0.000030933
Orbital period91.3 mins
Loading maneuver chart data...
Loading historical data...
Loading historical data...
Loading historical data...
Loading historical data...
Loading historical data...
Loading historical data...
Loading historical data...

STARLINK-11459 Visibility forecast

Observer location: undefined°, undefined

Span
Click to sort rows by Start time (UTC) header in descending order
Start Az.
Max El. time (UTC)
Max El. Az.
Max El.
End time (UTC)
End Az.
4 mins2025-01-26 13:27:28.773Z252.543° W2025-01-26 13:28:28.773Z255.103° W40.584°2025-01-26 13:31:28.773Z71.508° E
|